User: anonymous   Login
Location: Nebula Knoll Observatory
(43.6666°N, 71.0000°W)
Time: 01:16:24
(UTC-04:00)
Language:

Cosmos 1782 - Orbit

View from above orbital plane
View from above orbital plane
View from above satellite
View from above satellite

Ground track
Ground track

The orbit data is extracted from the following two-line orbital elements,

1 16986U 86074A   18109.86946356  .00000756  00000-0  48739-4 0  9994
2 16986  82.5079 182.8278 0012136  21.5578 338.6158 15.06829747717031
Epoch (UTC): 19 April 2018 20:52:01
Eccentricity: 0.0012136
inclination: 82.5079°
perigee height: 537 km
apogee height: 554 km
right ascension of ascending node: 182.8278°
argument of perigee: 21.5578°
revolutions per day: 15.06829747
mean anomaly at epoch: 338.6158°
orbit number at epoch: 71703

The dashed part of the orbit path shows where the satellite is in the earth's shadow,  

DLR